"Pseudo-MPEC" for C1H7382

Created 2019 Dec 7 10:07:06 UT using Find_Orb

Click here for an explanation of pseudo-MPECs

 
 Astrometry: 
     C1H7382  C2019 12 02.14725 00 27 06.31 +29 41 52.2    ~C257 21.2 GVNEOCPG96
     C1H7382  C2019 12 02.15251 00 27 07.24 +29 40 32.6    ~C257 21.2 GVNEOCPG96
     C1H7382  C2019 12 02.15775 00 27 08.14 +29 39 14.1    ~C257 21.4 GVNEOCPG96
     C1H7382  C2019 12 02.16299 00 27 09.02 +29 37 54.7    ~C257 22.0 GVNEOCPG96
     C1H7382  C2019 12 02.33276 00 27 46.86 +28 53 23.7    ~C28q 21.8 GVNEOCPG96
     C1H7382  C2019 12 02.33438 00 27 47.37 +28 52 56.7    ~C28q 21.7 GVNEOCPG96
     C1H7382  C2019 12 02.33601 00 27 47.84 +28 52 30.5    ~C28q 21.7 GVNEOCPG96

Station data:
(G96) Mt. Lemmon Survey  (N32.442754 W110.788720)  US/Arizona.  Observers T.
   A. Pruyne, B. M. Africano, E. J. Christensen, G. A. Farneth, D. C. Fuls,
   A. R. Gibbs, A. D. Grauer, H. Gröller, J. A. Johnson, R. A. Kowalski, S.
   M. Larson, G. J. Leonard, D. Rankin, R. L. Seaman, F. C. Shelly. 1.5-m
   reflector + 10K CCD.

Orbital elements:  C1H7382
   Perihelion 2020 Jan 23.766952 +/- 35.2 TT = 18:24:24 (JD 2458872.266952)
Epoch 2019 Dec  2.0 TT = JDT 2458819.5   Earth MOID: 0.0087   AutoNEOCP
M 310.18958739 +/- 37               (J2000 ecliptic)
n   0.94396986 +/- 0.0681           Peri.  229.27875 +/- 34
a   1.02919411 +/- 0.0495           Node   253.43010 +/- 0.55
e   0.0495360 +/- 0.0415            Incl.    5.59105 +/- 0.9
P   1.04/381.36d           H 28.4   G  0.15   U 10.9  
q 0.97821186 +/- 0.00488    Q 1.08017636 +/- 0.0947
From 7 observations 2019 Dec. 2 (4.5 hr); mean residual 0".23
Residuals in arcseconds: 
191202 G96  .19-  .23+    191202 G96  .18-  .05-    191202 G96  .03-  .12-    
191202 G96  .19+  .33-    191202 G96  .17-  .46+    
191202 G96  .17+  .14+    191202 G96  .20+  .32-    

Ephemerides (geocentric):
Date (UTC) HH   RA              Dec         delta   r     elong  mag " sig PA
---- -- -- --  -------------   -----------  ------ ------ -----  --- ---- ---
2019 12 07 10  00 59 02.066   +03 58 56.06  .01771 0.9943 120.4 21.8 9786 170
2019 12 07 11  00 59 17.661   +03 45 32.27  .01771 0.9942 120.3 21.8 9950 170
2019 12 07 12  00 59 33.261   +03 32 08.31  .01770 0.9942 120.2 21.8 169' 170
2019 12 07 13  00 59 48.866   +03 18 44.20  .01770 0.9942 120.2 21.8 171' 170
2019 12 07 14  01 00 04.475   +03 05 19.97  .01770 0.9941 120.1 21.8 174' 170
2019 12 07 15  01 00 20.089   +02 51 55.65  .01770 0.9941 120.0 21.8 177' 170
2019 12 07 16  01 00 35.708   +02 38 31.26  .01770 0.9941 119.9 21.8 180' 170
2019 12 07 17  01 00 51.331   +02 25 06.83  .01770 0.9941 119.9 21.8 183' 170
2019 12 07 18  01 01 06.958   +02 11 42.39  .01770 0.9940 119.8 21.8 186' 170
2019 12 07 19  01 01 22.590   +01 58 17.96  .01770 0.9940 119.7 21.8 188' 170
2019 12 07 20  01 01 38.226   +01 44 53.56  .01770 0.9940 119.6 21.8 191' 170
2019 12 07 21  01 01 53.866   +01 31 29.24  .01770 0.9940 119.5 21.8 194' 169
2019 12 07 22  01 02 09.511   +01 18 05.00  .01770 0.9939 119.5 21.8 197' 169
2019 12 07 23  01 02 25.160   +01 04 40.89  .01770 0.9939 119.4 21.8 200' 169
2019 12 08 00  01 02 40.812   +00 51 16.92  .01770 0.9939 119.3 21.8 203' 169
2019 12 08 01  01 02 56.469   +00 37 53.12  .01770 0.9939 119.2 21.8 206' 169
2019 12 08 02  01 03 12.130   +00 24 29.52  .01770 0.9938 119.1 21.8 209' 169
2019 12 08 03  01 03 27.794   +00 11 06.15  .01770 0.9938 119.1 21.8 212' 169
2019 12 08 04  01 03 43.463   -00 02 16.97  .01771 0.9938 119.0 21.8 215' 169
2019 12 08 05  01 03 59.135   -00 15 39.81  .01771 0.9937 118.9 21.8 218' 169
2019 12 08 06  01 04 14.811   -00 29 02.35  .01771 0.9937 118.8 21.8 221' 169
2019 12 08 07  01 04 30.491   -00 42 24.56  .01772 0.9937 118.7 21.8 224' 169
2019 12 08 08  01 04 46.174   -00 55 46.41  .01772 0.9937 118.7 21.8 227' 169
2019 12 08 09  01 05 01.860   -01 09 07.88  .01772 0.9936 118.6 21.8 230' 169
2019 12 08 10  01 05 17.551   -01 22 28.93  .01773 0.9936 118.5 21.8 233' 169
2019 12 08 11  01 05 33.244   -01 35 49.56  .01773 0.9936 118.4 21.8 236' 169
2019 12 08 12  01 05 48.941   -01 49 09.72  .01774 0.9936 118.3 21.8 240' 169
2019 12 08 13  01 06 04.641   -02 02 29.39  .01774 0.9935 118.2 21.8 243' 169
2019 12 08 14  01 06 20.345   -02 15 48.55  .01775 0.9935 118.2 21.8 246' 169
2019 12 08 15  01 06 36.051   -02 29 07.18  .01775 0.9935 118.1 21.8 249' 169
2019 12 08 16  01 06 51.761   -02 42 25.24  .01776 0.9935 118.0 21.8 252' 169
2019 12 08 17  01 07 07.474   -02 55 42.70  .01776 0.9934 117.9 21.8 255' 169
2019 12 08 18  01 07 23.190   -03 08 59.56  .01777 0.9934 117.8 21.8 258' 169
2019 12 08 19  01 07 38.908   -03 22 15.77  .01778 0.9934 117.7 21.8 262' 169
2019 12 08 20  01 07 54.630   -03 35 31.32  .01778 0.9934 117.6 21.9 265' 169
2019 12 08 21  01 08 10.354   -03 48 46.18  .01779 0.9933 117.5 21.9 268' 169
2019 12 08 22  01 08 26.081   -04 02 00.32  .01780 0.9933 117.5 21.9 271' 169
2019 12 08 23  01 08 41.811   -04 15 13.73  .01780 0.9933 117.4 21.9 274' 169
2019 12 09 00  01 08 57.543   -04 28 26.37  .01781 0.9932 117.3 21.9 278' 169
2019 12 09 01  01 09 13.278   -04 41 38.22  .01782 0.9932 117.2 21.9 281' 169
2019 12 09 02  01 09 29.016   -04 54 49.25  .01783 0.9932 117.1 21.9 284' 169
2019 12 09 03  01 09 44.756   -05 07 59.45  .01784 0.9932 117.0 21.9 287' 169
2019 12 09 04  01 10 00.498   -05 21 08.79  .01785 0.9931 116.9 21.9 290' 168
2019 12 09 05  01 10 16.243   -05 34 17.25  .01785 0.9931 116.8 21.9 294' 168
2019 12 09 06  01 10 31.990   -05 47 24.79  .01786 0.9931 116.7 21.9 297' 168
2019 12 09 07  01 10 47.739   -06 00 31.40  .01787 0.9931 116.7 21.9 300' 168
2019 12 09 08  01 11 03.490   -06 13 37.06  .01788 0.9930 116.6 21.9 303' 168
2019 12 09 09  01 11 19.244   -06 26 41.74  .01789 0.9930 116.5 21.9 307' 168